Date String (YYYY-MM-DD hh:mm:ss) UTC,Instrument flags,absolute air pressure of the measurement (hPa),sample flow rate (lpm),inlet stack bypass flow (lpm),air temperature of the measurement (°C),ambient temperature measured by the external sensor (°C),aerosol sample conditioner tube jacket temperature (°C),OPC LED temperature (°C),internal box temperature (°C),relative humidity of the measurement (%),span deviation,mass concentration of particles derived from Lorenz-Mie calculation of OPC scattering (μg/m³),mass concentration of particles derived from Lorenz-Mie calculation of OPC scattering (μg/m³),mass concentration of particles derived from Lorenz-Mie calculation of OPC scattering (μg/m³)
DateTimeUTC,F1_M11,P_M11,Q1_M11,Q2_M11,T1_M11,T2_M11,T3_M11,T4_M11,T5_M11,U1_M11,ZSPAN_M11,X0_M11,X2_M11,X1_M11
2023-11-16 03:00:00,SystemResetWarning,0828.3,5.01,000.00,027.7,026.5,000.0,036.1,029.1,7.0,0000.0,0008.35,0003.12,0002.15
2023-11-16 03:01:00,SystemResetWarning,0828.2,5.00,000.00,027.7,026.5,000.0,036.1,029.1,7.1,0000.0,0008.57,0003.11,0002.16
2023-11-16 03:02:00,SystemResetWarning,0828.2,4.98,000.00,027.7,026.5,000.0,036.1,029.1,7.1,0000.0,0008.41,0003.09,0002.14
2023-11-16 03:03:00,SystemResetWarning,0828.2,4.99,000.00,027.7,026.5,000.0,036.1,029.0,7.1,0000.0,0008.47,0003.07,0002.13
2023-11-16 03:04:00,SystemResetWarning,0828.1,5.00,000.00,027.7,026.4,000.0,036.1,029.0,7.1,0000.0,0008.55,0003.00,0002.13
2023-11-16 03:05:00,SystemResetWarning,0828.2,5.01,000.00,027.7,026.4,000.0,036.1,029.0,7.0,0000.0,0008.69,0002.95,0002.12
2023-11-16 03:06:00,SystemResetWarning,0828.2,5.01,000.00,027.7,026.4,000.0,036.1,029.0,7.0,0000.0,0008.68,0002.97,0002.11
2023-11-16 03:07:00,SystemResetWarning,0828.1,5.00,000.00,027.7,026.4,000.0,036.1,029.0,7.0,0000.0,0008.25,0002.99,0002.11
2023-11-16 03:08:00,SystemResetWarning,0828.2,4.99,000.00,027.6,026.4,000.0,036.1,029.0,7.0,0000.0,0008.11,0003.00,0002.12
2023-11-16 03:09:00,SystemResetWarning,0828.2,4.99,000.00,027.6,026.4,000.0,036.1,029.0,7.0,0000.0,0009.30,0003.05,0002.14
2023-11-16 03:10:00,SystemResetWarning,0828.2,5.00,000.00,027.6,026.4,000.0,036.1,029.0,7.0,0000.0,0010.97,0003.08,0002.15
2023-11-16 03:11:00,SystemResetWarning,0828.2,5.01,000.00,027.6,026.4,000.0,036.1,029.0,7.0,0000.0,0011.46,0003.12,0002.16
2023-11-16 03:12:00,SystemResetWarning,0828.1,5.00,000.00,027.6,026.4,000.0,036.1,029.0,7.0,0000.0,0011.07,0003.08,0002.15
2023-11-16 03:13:00,SystemResetWarning,0828.2,5.00,000.00,027.6,026.4,000.0,036.1,029.0,7.0,0000.0,0010.72,0003.10,0002.17
2023-11-16 03:14:00,SystemResetWarning,0828.1,5.00,000.00,027.6,026.4,000.0,036.1,029.0,7.2,0000.0,0010.55,0003.11,0002.17
2023-11-16 03:15:00,SystemResetWarning,0828.0,5.00,000.00,027.6,026.4,000.0,036.1,029.0,7.3,0000.0,0010.46,0003.10,0002.18
2023-11-16 03:16:00,SystemResetWarning,0828.1,4.99,000.00,027.6,026.4,000.0,036.0,029.0,7.3,0000.0,0011.24,0003.12,0002.18
2023-11-16 03:17:00,SystemResetWarning,0828.1,4.99,000.00,027.6,026.4,000.0,036.0,029.0,7.2,0000.0,0012.04,0003.13,0002.20
2023-11-16 03:18:00,SystemResetWarning,0828.1,5.00,000.00,027.6,026.4,000.0,036.0,029.0,7.2,0000.0,0012.91,0003.08,0002.21
2023-11-16 03:19:00,SystemResetWarning,0827.9,5.00,000.00,027.6,026.4,000.0,036.0,029.0,7.1,0000.0,0013.11,0003.07,0002.20
2023-11-16 03:20:00,SystemResetWarning,0827.8,5.00,000.00,027.6,026.4,000.0,036.0,029.0,7.1,0000.0,0012.09,0003.08,0002.21
2023-11-16 03:21:00,SystemResetWarning,0827.8,5.00,000.00,027.6,026.4,000.0,036.0,029.0,7.1,0000.0,0010.24,0003.06,0002.20
2023-11-16 03:22:00,SystemResetWarning,0827.8,5.00,000.00,027.6,026.4,000.0,036.0,029.0,7.0,0000.0,0009.15,0003.04,0002.19
2023-11-16 03:23:00,SystemResetWarning,0827.8,5.00,000.00,027.6,026.4,000.0,036.0,029.0,7.1,0000.0,0009.14,0003.04,0002.19
2023-11-16 03:24:00,SystemResetWarning,0827.8,5.00,000.00,027.6,026.4,000.0,036.0,029.0,7.1,0000.0,0009.31,0003.08,0002.19
2023-11-16 03:25:00,SystemResetWarning,0827.7,4.99,000.00,027.6,026.4,000.0,036.0,029.0,7.2,0000.0,0009.33,0003.07,0002.18
2023-11-16 03:26:00,SystemResetWarning,0828.0,4.99,000.00,027.6,026.4,000.0,036.0,029.0,7.2,0000.0,0009.44,0003.09,0002.18
2023-11-16 03:27:00,SystemResetWarning,0827.8,4.99,000.00,027.6,026.4,000.0,036.0,029.0,7.2,0000.0,0008.88,0003.10,0002.18
2023-11-16 03:28:00,SystemResetWarning,0827.8,5.01,000.00,027.6,026.4,000.0,036.0,028.9,7.1,0000.0,0007.69,0003.09,0002.17
2023-11-16 03:29:00,SystemResetWarning,0827.8,5.01,000.00,027.6,026.4,000.0,036.0,028.9,7.1,0000.0,0006.60,0003.08,0002.16
2023-11-16 03:30:00,SystemResetWarning,0827.7,5.01,000.00,027.6,026.4,000.0,036.0,028.9,7.1,0000.0,0006.34,0003.07,0002.16
2023-11-16 03:31:00,SystemResetWarning,0827.7,5.00,000.00,027.6,026.4,000.0,036.0,029.0,7.0,0000.0,0006.19,0002.98,0002.14
2023-11-16 03:32:00,SystemResetWarning,0827.6,4.99,000.00,027.6,026.4,000.0,036.0,028.9,7.0,0000.0,0006.18,0002.94,0002.12
2023-11-16 03:33:00,SystemResetWarning,0827.6,5.00,000.00,027.6,026.4,000.0,036.0,028.9,7.1,0000.0,0006.47,0002.90,0002.12
2023-11-16 03:34:00,SystemResetWarning,0827.5,5.00,000.00,027.6,026.4,000.0,036.0,028.9,7.1,0000.0,0006.44,0002.83,0002.10
2023-11-16 03:35:00,SystemResetWarning,0827.7,5.00,000.00,027.6,026.4,000.0,036.0,028.9,7.1,0000.0,0006.28,0002.73,0002.06
2023-11-16 03:36:00,SystemResetWarning,0827.7,5.00,000.00,027.6,026.4,000.0,036.0,028.9,7.2,0000.0,0007.45,0002.71,0002.06
2023-11-16 03:37:00,SystemResetWarning,0827.4,5.01,000.00,027.5,026.4,000.0,036.0,028.9,7.2,0000.0,0007.39,0002.72,0002.06
2023-11-16 03:38:00,SystemResetWarning,0827.4,5.01,000.00,027.5,026.4,000.0,036.0,028.9,7.0,0000.0,0007.34,0002.69,0002.06
2023-11-16 03:39:00,SystemResetWarning,0827.4,5.01,000.00,027.5,026.4,000.0,036.0,028.9,7.0,0000.0,0007.33,0002.69,0002.04
2023-11-16 03:40:00,SystemResetWarning,0827.4,5.00,000.00,027.5,026.4,000.0,036.0,028.9,7.0,0000.0,0007.72,0002.72,0002.03
2023-11-16 03:41:00,SystemResetWarning,0827.3,5.00,000.00,027.5,026.3,000.0,036.0,028.9,7.0,0000.0,0007.29,0002.70,0002.02
2023-11-16 03:42:00,SystemResetWarning,0827.3,5.00,000.00,027.5,026.4,000.0,035.9,028.9,7.0,0000.0,0007.08,0002.67,0002.02
2023-11-16 03:43:00,SystemResetWarning,0827.4,4.99,000.00,027.5,026.4,000.0,035.9,028.9,7.0,0000.0,0007.00,0002.63,0002.01
2023-11-16 03:44:00,SystemResetWarning,0827.4,4.99,000.00,027.5,026.4,000.0,035.9,028.9,7.0,0000.0,0006.80,0002.62,0002.01
2023-11-16 03:45:00,SystemResetWarning,0827.4,4.99,000.00,027.5,026.4,000.0,035.9,029.0,7.0,0000.0,0007.75,0002.65,0002.00
2023-11-16 03:46:00,SystemResetWarning,0827.4,5.00,000.00,027.5,026.4,000.0,035.9,029.0,7.0,0000.0,0007.73,0002.67,0002.03
2023-11-16 03:47:00,SystemResetWarning,0827.3,5.01,000.00,027.5,026.4,000.0,035.9,029.0,7.0,0000.0,0006.70,0002.71,0002.03
2023-11-16 03:48:00,SystemResetWarning,0827.4,5.00,000.00,027.6,026.4,000.0,035.9,029.0,7.0,0000.0,0007.50,0002.73,0002.03
2023-11-16 03:49:00,SystemResetWarning,0827.3,5.01,000.00,027.6,026.4,000.0,035.9,029.0,7.0,0000.0,0007.79,0002.77,0002.03
2023-11-16 03:50:00,SystemResetWarning,0827.3,5.00,000.00,027.6,026.5,000.0,035.9,029.0,6.9,0000.0,0007.93,0002.80,0002.04
2023-11-16 03:51:00,SystemResetWarning,0827.3,5.01,000.00,027.6,026.5,000.0,036.0,029.0,6.9,0000.0,0007.58,0002.78,0002.05
2023-11-16 03:52:00,SystemResetWarning,0827.3,5.00,000.00,027.6,026.5,000.0,036.0,028.9,7.0,0000.0,0007.59,0002.81,0002.06
2023-11-16 03:53:00,SystemResetWarning,0827.3,5.00,000.00,027.6,026.5,000.0,036.0,028.9,7.0,0000.0,0007.63,0002.85,0002.06
2023-11-16 03:54:00,SystemResetWarning,0827.3,5.00,000.00,027.5,026.5,000.0,036.0,028.9,7.0,0000.0,0007.74,0002.95,0002.07
2023-11-16 03:55:00,SystemResetWarning,0827.3,5.00,000.00,027.6,026.5,000.0,035.9,028.9,7.0,0000.0,0007.87,0003.00,0002.10
2023-11-16 03:56:00,SystemResetWarning,0827.2,5.00,000.00,027.5,026.5,000.0,035.9,028.9,7.0,0000.0,0007.25,0003.04,0002.12
2023-11-16 03:57:00,SystemResetWarning,0827.2,4.99,000.00,027.5,026.5,000.0,035.9,029.0,7.0,0000.0,0007.55,0003.10,0002.13
2023-11-16 03:58:00,SystemResetWarning,0827.1,5.01,000.00,027.5,026.4,000.0,035.9,029.0,7.0,0000.0,0008.23,0003.10,0002.12
2023-11-16 03:59:00,SystemResetWarning,0827.1,5.01,000.00,027.5,026.4,000.0,035.9,029.0,7.0,0000.0,0008.69,0003.08,0002.11
